DW3528 Weather Reports


Display with metric or nautical units.
time (UTC)temp
F
wind
direction
speed
MPH
gust
MPH
rain 1hr
in
rain 24hr
in
rain mn
in
humidity
%
barometer
mb
20260504120225 64 293 0.0 0.0 0.00 0.21 0.21 86 1016.4
20260504110721 67 293 0.0 0.0 0.00 0.21 0.21 82 1015.7
20260504110220 67 293 0.0 0.0 0.00 0.21 0.21 82 1015.7
20260504100220 67 293 0.0 0.0 0.00 0.21 0.21 82 1014.7
20260504081609 68 51 4.0 17.0 0.00 0.21 0.21 84 1014.3
20260504081105 68 56 3.0 15.0 0.00 0.21 0.21 84 1014.3
20260504080559 68 57 3.0 15.0 0.00 0.21 0.21 84 1014.2
20260504050400 67 58 0.0 0.0 0.00 0.21 0.21 93 1014.2
20260504045854 67 58 0.0 0.0 0.00 0.21 0.21 93 1014.2
20260504045348 67 58 0.0 0.0 0.00 0.21 0.21 94 1014.3
20260504044842 66 58 0.0 0.0 0.00 0.21 0.21 93 1014.4
20260504044338 66 58 0.0 0.0 0.00 0.21 0.21 94 1014.3
20260504043830 66 58 0.0 0.0 0.00 0.21 0.21 94 1014.4
20260504043544 66 58 0.0 0.0 0.00 0.21 0.21 94 1014.3
20260504043039 66 58 0.0 0.0 0.00 0.21 0.21 94 1014.2
20260504042312 66 58 0.0 0.0 0.00 0.21 0.21 94 1014.3
20260504041809 65 58 0.0 0.0 0.00 0.21 0.21 94 1014.2
20260504041300 65 58 0.0 0.0 0.00 0.21 0.21 94 1014.3
20260504040754 65 58 0.0 0.0 0.00 0.21 0.21 94 1014.4
20260504040248 65 58 0.0 0.0 0.00 0.21 0.21 94 1014.6
20260504035743 65 58 0.0 0.0 0.00 0.21 0.21 94 1014.6
20260504035239 65 58 0.0 0.0 0.00 0.21 0.21 94 1014.6
20260504034731 65 58 0.0 0.0 0.00 0.21 0.21 94 1014.6
20260504034720 65 58 0.0 0.0 0.00 0.21 0.21 94 1014.7
20260504033719 65 58 0.0 0.0 0.00 0.21 0.21 94 1014.7
20260504033437 64 58 0.0 0.0 0.01 0.21 0.21 94 1014.8
20260504032708 64 58 0.0 0.0 0.01 0.21 0.21 94 1014.8
20260504032200 64 58 0.0 0.0 0.01 0.21 0.21 94 1014.9
20260504031654 64 58 0.0 0.0 0.01 0.21 0.21 94 1015.1
20260504031149 63 58 1.0 13.0 0.01 0.21 0.21 94 1015.3
20260504030643 63 58 1.0 13.0 0.01 0.21 0.21 94 1015.2
20260504030139 63 59 3.0 10.0 0.01 0.21 0.21 94 1015.3
20260504025631 63 60 2.0 15.0 0.01 0.21 0.21 94 1015.4
20260504025124 63 60 4.0 16.0 0.01 0.21 0.21 94 1015.5
20260504024618 63 59 7.0 16.0 0.01 0.21 0.21 94 1015.6
20260504024339 63 63 10.0 19.0 0.01 0.21 0.21 94 1015.7
20260504023608 63 63 10.0 22.0 0.02 0.21 0.21 94 1015.8
20260504023101 64 64 9.0 22.0 0.01 0.20 0.20 94 1015.9
20260504022554 64 76 9.0 17.0 0.02 0.20 0.20 94 1016.0
20260504022049 64 78 4.0 16.0 0.03 0.20 0.20 94 1016.2
20260504021809 64 81 0.0 0.0 0.05 0.20 0.20 94 1016.2
20260504021313 64 83 0.0 0.0 0.06 0.20 0.20 94 1016.3
20260504020532 64 96 0.0 0.0 0.06 0.20 0.20 93 1016.5
20260504020024 64 101 0.0 0.0 0.07 0.20 0.20 94 1016.6
20260504015518 64 106 0.0 0.0 0.07 0.20 0.20 94 1016.7
20260504015012 64 108 0.0 0.0 0.07 0.20 0.20 94 1016.8
20260504014508 64 108 0.0 0.0 0.08 0.20 0.20 94 1017.0
20260504014001 64 108 0.0 0.0 0.07 0.19 0.19 94 1017.2
20260504013455 64 108 0.0 0.0 0.08 0.19 0.19 94 1017.3
20260504012949 64 108 0.0 0.0 0.08 0.19 0.19 94 1017.4
20260504012443 64 108 0.0 0.0 0.08 0.18 0.18 94 1017.4
20260504011938 64 108 0.0 0.0 0.07 0.17 0.17 93 1017.5
20260504011430 64 108 0.0 0.0 0.05 0.15 0.15 93 1017.6
20260504010924 64 108 0.0 0.0 0.05 0.14 0.14 93 1017.6
20260504010418 64 108 0.0 0.0 0.04 0.13 0.13 93 1017.6
20260504005912 64 108 0.0 0.0 0.04 0.13 0.13 93 1017.6
20260504005629 63 108 0.0 0.0 0.04 0.13 0.13 93 1017.5
20260504004900 63 108 0.0 0.0 0.05 0.13 0.13 93 1017.5
20260504004354 63 108 0.0 0.0 0.05 0.12 0.12 93 1017.5
20260504004108 63 108 0.0 0.0 0.04 0.11 0.11 93 1017.6
20260504003342 63 108 0.0 0.0 0.05 0.11 0.11 93 1017.6
20260504002838 63 108 0.0 0.0 0.06 0.11 0.11 93 1017.5
20260504002331 63 108 0.0 0.0 0.06 0.10 0.10 93 1017.5
20260504001824 63 46 0.0 0.0 0.06 0.10 0.10 93 1017.5
20260504001319 63 46 0.0 0.0 0.07 0.10 0.10 93 1017.5
20260504000812 63 46 0.0 0.0 0.07 0.09 0.09 93 1017.6
20260504000308 63 46 0.0 0.0 0.08 0.09 0.09 93 1017.5
20260503235801 63 46 0.0 0.0 0.08 0.09 0.09 93 1017.6
20260503235254 62 46 0.0 0.0 0.07 0.08 0.08 93 1017.3
20260503235010 62 46 0.0 0.0 0.07 0.08 0.08 93 1017.5
20260503234503 62 46 0.0 0.0 0.06 0.07 0.07 93 1017.6
20260503233738 62 46 0.0 0.0 0.06 0.07 0.07 93 1017.7
20260503233230 62 46 0.0 0.0 0.05 0.06 0.06 93 1017.6
20260503232952 62 46 0.0 0.0 0.04 0.05 0.05 93 1017.5
20260503232218 62 46 0.0 0.0 0.03 0.04 0.04 93 1017.6
20260503231712 62 46 0.0 0.0 0.03 0.04 0.04 93 1017.6
20260503231208 62 46 0.0 0.0 0.02 0.03 0.03 93 1017.8
20260503230700 62 46 0.0 0.0 0.01 0.02 0.02 93 1017.8
20260503230154 62 46 0.0 0.0 0.00 0.01 0.01 93 1017.9
20260503225648 62 46 0.0 0.0 0.00 0.01 0.01 93 1018.1
20260503225142 62 46 0.0 0.0 0.00 0.01 0.01 93 1018.1
20260503224638 62 46 0.0 0.0 0.00 0.01 0.01 93 1018.0
20260503224130 62 46 0.0 0.0 0.00 0.01 0.01 93 1017.9
20260503223625 62 46 0.0 0.0 0.00 0.01 0.01 93 1017.8
20260503223118 62 46 0.0 0.0 0.00 0.01 0.01 93 1017.6
20260503222612 62 46 0.0 0.0 0.00 0.01 0.01 93 1017.4
20260503222110 63 46 0.0 0.0 0.00 0.01 0.01 93 1017.3
20260503221600 63 46 0.0 0.0 0.01 0.01 0.01 93 1017.2
20260503221054 63 46 0.0 0.0 0.01 0.01 0.01 93 1017.0
20260503220549 63 46 0.0 0.0 0.01 0.01 0.01 93 1016.8
20260503220042 63 46 0.0 0.0 0.01 0.01 0.01 93 1016.9
20260503215538 62 46 0.0 0.0 0.01 0.01 0.01 93 1016.8
20260503215030 62 46 0.0 0.0 0.01 0.01 0.01 93 1016.8
20260503214531 62 46 0.0 0.0 0.01 0.01 0.01 93 1016.7
20260503214248 62 46 0.0 0.0 0.01 0.01 0.01 93 1016.7
20260503213527 62 46 0.0 0.0 0.01 0.01 0.01 93 1016.7
20260503213029 62 46 0.0 0.0 0.01 0.01 0.01 93 1016.8
20260503212752 62 46 0.0 0.0 0.01 0.01 0.01 93 1016.7
20260503212023 61 46 0.0 0.0 0.01 0.01 0.01 93 1016.7
20260503211753 61 46 0.0 0.0 0.00 0.00 0.00 93 1016.6
20260503211019 61 46 0.0 0.0 0.00 0.00 0.00 93 1016.5
20260503210518 61 46 0.0 0.0 0.00 0.00 0.00 93 1016.4
20260503210019 61 46 0.0 0.0 0.00 0.00 0.00 93 1016.3
20260503205517 61 46 0.0 0.0 0.00 0.00 0.00 92 1016.2
20260503205017 61 46 0.0 0.0 0.00 0.00 0.00 92 1016.3
20260503204514 61 46 0.0 0.0 0.00 0.00 0.00 92 1016.2
20260503204014 61 46 0.0 0.0 0.00 0.00 0.00 92 1016.2
20260503203513 61 46 0.0 0.0 0.00 0.00 0.00 92 1016.2
20260503203013 61 46 0.0 0.0 0.00 0.00 0.00 92 1016.1
20260503202510 61 46 0.0 0.0 0.00 0.00 0.00 92 1016.0
20260503202009 61 46 0.0 0.0 0.00 0.00 0.00 92 1016.1
20260503201507 61 46 0.0 0.0 0.00 0.00 0.00 92 1016.1
20260503201005 61 46 0.0 0.0 0.00 0.00 0.00 92 1016.0
20260503200502 61 46 0.0 0.0 0.00 0.00 0.00 92 1015.9
20260503195959 61 46 0.0 0.0 0.00 0.00 0.00 92 1016.0
20260503195451 61 46 0.0 0.0 0.00 0.00 0.00 92 1016.0
20260503194945 61 46 0.0 0.0 0.00 0.00 0.00 92 1016.0
20260503194700 61 46 0.0 0.0 0.00 0.00 0.00 92 1016.0
20260503193932 61 46 0.0 0.0 0.00 0.00 0.00 92 1015.9
20260503193429 61 46 0.0 0.0 0.00 0.00 0.00 92 1015.8
20260503192920 61 46 0.0 0.0 0.00 0.00 0.00 92 1015.8
20260503192414 61 46 0.0 0.0 0.00 0.00 0.00 92 1015.8
20260503191909 61 46 0.0 0.0 0.00 0.00 0.00 92 1015.8
20260503191630 61 46 0.0 0.0 0.00 0.00 0.00 92 1015.8
20260503190858 61 46 0.0 0.0 0.00 0.00 0.00 92 1015.8
20260503190350 61 46 0.0 0.0 0.00 0.00 0.00 92 1015.8
20260503185844 61 46 0.0 0.0 0.00 0.00 0.00 92 1015.8
20260503185831 61 46 0.0 0.0 0.00 0.00 0.00 92 1015.8
20260503184832 61 46 0.0 0.0 0.00 0.00 0.00 92 1015.8
20260503184333 61 46 0.0 0.0 0.00 0.00 0.00 92 1015.8
20260503183833 61 46 0.0 0.0 0.00 0.00 0.00 92 1015.8
20260503183331 61 46 0.0 0.0 0.00 0.00 0.00 92 1015.8
20260503182831 61 46 0.0 0.0 0.00 0.00 0.00 92 1015.8
20260503182333 61 46 0.0 0.0 0.00 0.00 0.00 92 1015.8
20260503181832 61 46 0.0 0.0 0.00 0.00 0.00 92 1015.8
20260503181819 61 46 0.0 0.0 0.00 0.00 0.00 92 1015.7
20260503180831 61 46 0.0 0.0 0.00 0.00 0.00 92 1015.8
20260503180333 61 46 0.0 0.0 0.00 0.00 0.00 91 1015.8
20260503175830 61 46 0.0 0.0 0.00 0.00 0.00 91 1015.8
20260503175329 61 46 0.0 0.0 0.00 0.00 0.00 91 1015.7
20260503174826 61 46 0.0 0.0 0.00 0.00 0.00 91 1015.7
20260503174322 61 46 0.0 0.0 0.00 0.00 0.00 91 1015.7
20260503173823 60 46 0.0 0.0 0.00 0.00 0.00 91 1015.7
20260503173321 60 46 0.0 0.0 0.00 0.00 0.00 91 1015.7
20260503172821 60 46 0.0 0.0 0.00 0.00 0.00 91 1015.7
20260503172320 60 46 0.0 0.0 0.00 0.00 0.00 91 1015.8
20260503171821 60 46 0.0 0.0 0.00 0.00 0.00 91 1015.8
20260503171320 60 46 0.0 0.0 0.00 0.00 0.00 91 1015.9
20260503170820 60 46 0.0 0.0 0.00 0.00 0.00 91 1015.9
20260503170317 60 46 0.0 0.0 0.00 0.00 0.00 91 1016.0
20260503150801 61 46 0.0 0.0 0.00 0.00 0.00 89 1016.9
20260503150300 61 46 0.0 0.0 0.00 0.00 0.00 89 1016.9
20260503140303 62 46 0.0 0.0 0.00 0.00 0.00 87 1017.5
20260503131246 62 46 0.0 0.0 0.00 0.00 0.00 86 1018.0
20260503130746 62 46 0.0 0.0 0.00 0.00 0.00 86 1018.0
20260503130517 62 46 0.0 0.0 0.00 0.00 0.00 86 1018.0